Location: Emporia
(38.4040°N, 96.1810°W)
Time: 12:32:55
(UTC-05:00)

ISS - Visible Passes

Search period start: 17 September 2014 00:00
Search period end: 27 September 2014 00:00
Orbit: 414 x 417 km, 51.6° (Epoch: 17 September)

Date Brightness Start Highest point End Pass type
(mag) Time Alt. Az. Time Alt. Az. Time Alt. Az.
17 Sep -0.5 04:42:47 18° NE 04:42:47 18° NE 04:43:49 10° NE visible
17 Sep -0.9 06:16:01 10° NW 06:17:47 14° NNW 06:19:34 10° NNE visible
18 Sep -1.2 05:28:57 18° NNW 05:28:57 18° NNW 05:31:11 10° NNE visible
19 Sep -0.2 04:42:10 13° NNE 04:42:10 13° NNE 04:42:42 10° NNE visible
20 Sep -0.6 05:28:12 11° NNW 05:28:23 11° NNW 05:29:31 10° N visible
25 Sep -0.5 06:13:59 10° NNW 06:15:57 15° NNE 06:17:54 10° ENE visible
26 Sep -0.4 05:25:26 10° N 05:26:39 12° NNE 05:27:51 10° NE visible
